User: anonymous   Login
Location: Arbon
(43.0005°N, 0.7472°E)
Time: 11:55:13
(UTC+00:00)
Language:

Courier 1B Rocket - Orbit

View from above orbital plane
View from above orbital plane
View from above satellite
View from above satellite

Ground track
Ground track

The orbit data is extracted from the following two-line orbital elements,

1    59U 60013B   20334.74522353 +.00000105 +00000-0 +17827-4 0  9992
2    59 028.2493 089.1311 0189166 233.5567 124.7404 13.52980504968977
Epoch (UTC): 29 November 2020 17:53:07
Eccentricity: 0.0189166
inclination: 28.2493°
perigee height: 920 km
apogee height: 1202 km
right ascension of ascending node: 89.1311°
argument of perigee: 233.5567°
revolutions per day: 13.52980504
mean anomaly at epoch: 124.7404°
orbit number at epoch: 96897

The dashed part of the orbit path shows where the satellite is in the earth's shadow,  

DLR